User: anonymous   Login
Location: Brno
(49.2000°N, 16.6330°E)
Time: 22:37:20
(UTC+02:00)
Language:

Cosmos 1603 - Orbit

View from above orbital plane
View from above orbital plane
View from above satellite
View from above satellite

Ground track
Ground track

The orbit data is extracted from the following two-line orbital elements,

1 15333U 84106A   16274.52097237 -.00000140 +00000-0 -48326-4 0  9993
2 15333 071.0259 276.1008 0021997 246.2053 113.6763 14.14047019651319
Epoch (UTC): 30 September 2016 12:30:12
Eccentricity: 0.0021997
inclination: 71.0259°
perigee height: 829 km
apogee height: 861 km
right ascension of ascending node: 276.1008°
argument of perigee: 246.2053°
revolutions per day: 14.14047019
mean anomaly at epoch: 113.6763°
orbit number at epoch: 65131

The dashed part of the orbit path shows where the satellite is in the earth's shadow,  

DLR